Date String (YYYY-MM-DD hh:mm:ss) UTC,Instrument flags,Ambient pressure (hPa),Sample flow (lpm),Bypass flow (lpm),Sample temperature (°C),Ambient temperature (°C),ASC tube jacket temperature (°C),LED temperature (°C),Box temperature (°C),Sample RH (%),Span deviation,Mass concentration (μg/m³),Mass concentration (μg/m³),Mass concentration (μg/m³)
DateTimeUTC,F1_M11,P_M11,Q1_M11,Q2_M11,T1_M11,T2_M11,T3_M11,T4_M11,T5_M11,U1_M11,ZSPAN_M11,X2_M11,X0_M11,X1_M11
2021-12-21 13:00:00,,0823.3,5.00,0.00,22.1,21.4,00.0,31.2,23.8,06.6,0000.0,0000.47,0002.45,0000.33
2021-12-21 13:01:00,,0823.2,5.02,0.00,22.1,21.3,00.0,31.2,23.8,06.6,0000.0,0000.47,0002.49,0000.33
2021-12-21 13:02:00,,0823.4,5.00,0.00,22.1,21.3,00.0,31.2,23.7,06.6,0000.0,0000.46,0002.95,0000.33
2021-12-21 13:03:00,,0823.4,4.99,0.00,22.1,21.3,00.0,31.2,23.6,06.6,0000.0,0000.44,0003.00,0000.33
2021-12-21 13:04:00,,0823.4,4.99,0.00,22.1,21.3,00.0,31.1,23.6,06.6,0000.0,0000.43,0002.27,0000.32
2021-12-21 13:05:00,,0823.3,4.99,0.00,22.1,21.3,00.0,31.1,23.7,06.6,0000.0,0000.42,0002.25,0000.32
2021-12-21 13:06:00,,0823.4,5.01,0.00,22.1,21.3,00.0,31.1,23.7,06.6,0000.0,0000.41,0002.24,0000.32
2021-12-21 13:07:00,,0823.3,4.99,0.00,22.0,21.3,00.0,31.1,23.7,06.6,0000.0,0000.40,0003.49,0000.31
2021-12-21 13:08:00,,0823.3,5.00,0.00,22.0,21.3,00.0,31.1,23.7,06.6,0000.0,0000.38,0003.57,0000.31
2021-12-21 13:09:00,,0823.4,5.01,0.00,22.0,21.3,00.0,31.1,23.7,06.6,0000.0,0000.37,0003.50,0000.31
2021-12-21 13:10:00,,0823.3,5.00,0.00,22.1,21.9,00.0,31.1,23.9,06.5,0000.0,0000.36,0003.41,0000.31
2021-12-21 13:11:00,,0823.4,4.98,0.00,22.2,22.8,00.0,31.2,24.2,06.5,0000.0,0000.35,0003.92,0000.31
2021-12-21 13:12:00,,0823.3,5.01,0.00,22.4,23.4,00.0,31.2,24.4,06.4,0000.0,0000.36,0005.08,0000.31
2021-12-21 13:13:00,,0823.4,5.01,0.00,22.5,23.2,00.0,31.3,24.4,06.5,0000.0,0000.37,0004.55,0000.32
2021-12-21 13:14:00,,0823.2,5.00,0.00,22.5,22.9,00.0,31.3,24.3,06.4,0000.0,0000.36,0003.57,0000.32
2021-12-21 13:15:00,,0823.2,5.01,0.00,22.5,22.7,00.0,31.3,24.3,06.4,0000.0,0000.39,0003.67,0000.32
2021-12-21 13:16:00,,0823.3,4.99,0.00,22.5,22.5,00.0,31.3,24.2,06.4,0000.0,0000.39,0003.69,0000.32
2021-12-21 13:17:00,,0823.2,5.00,0.00,22.4,22.3,00.0,31.3,24.2,06.5,0000.0,0000.42,0003.75,0000.32
2021-12-21 13:18:00,,0823.2,5.01,0.00,22.4,22.1,00.0,31.3,24.2,06.4,0000.0,0000.43,0002.52,0000.32
2021-12-21 13:19:00,,0823.2,4.99,0.00,22.4,22.1,00.0,31.3,24.1,06.5,0000.0,0000.43,0002.41,0000.32
2021-12-21 13:20:00,,0823.1,5.01,0.00,22.4,22.0,00.0,31.4,24.1,06.4,0000.0,0000.43,0002.40,0000.32
2021-12-21 13:21:00,,0823.0,5.00,0.00,22.4,21.9,00.0,31.4,24.1,06.4,0000.0,0000.43,0002.39,0000.32
2021-12-21 13:22:00,,0823.0,5.00,0.00,22.4,21.9,00.0,31.4,24.1,06.4,0000.0,0000.44,0002.16,0000.32
2021-12-21 13:23:00,,0823.0,5.01,0.00,22.4,21.8,00.0,31.4,24.1,06.4,0000.0,0000.43,0001.54,0000.32
2021-12-21 13:24:00,,0823.0,4.99,0.00,22.4,21.8,00.0,31.4,24.0,06.3,0000.0,0000.41,0001.49,0000.32
2021-12-21 13:25:00,,0823.0,5.01,0.00,22.4,21.8,00.0,31.4,24.1,06.3,0000.0,0000.42,0001.54,0000.32
2021-12-21 13:26:00,,0823.0,5.00,0.00,22.4,21.7,00.0,31.4,24.1,06.3,0000.0,0000.40,0001.49,0000.32
2021-12-21 13:27:00,,0823.0,5.01,0.00,22.4,21.7,00.0,31.4,24.1,06.4,0000.0,0000.40,0001.56,0000.32
2021-12-21 13:28:00,,0823.1,4.99,0.00,22.4,21.7,00.0,31.4,24.0,06.4,0000.0,0000.40,0001.67,0000.32
2021-12-21 13:29:00,,0823.0,5.01,0.00,22.4,21.6,00.0,31.4,24.0,06.4,0000.0,0000.40,0001.71,0000.33
2021-12-21 13:30:00,,0822.9,5.00,0.00,22.3,21.6,00.0,31.4,24.0,06.4,0000.0,0000.42,0001.84,0000.33
2021-12-21 13:31:00,,0823.0,4.99,0.00,22.3,21.6,00.0,31.4,24.0,06.4,0000.0,0000.43,0001.85,0000.33
2021-12-21 13:32:00,,0823.0,5.00,0.00,22.3,21.6,00.0,31.4,24.0,06.4,0000.0,0000.42,0001.84,0000.33
2021-12-21 13:33:00,,0823.0,5.01,0.00,22.3,21.6,00.0,31.4,24.0,06.4,0000.0,0000.41,0001.74,0000.32
2021-12-21 13:34:00,,0823.1,4.99,0.00,22.3,21.6,00.0,31.4,24.0,06.4,0000.0,0000.41,0001.04,0000.32
2021-12-21 13:35:00,,0822.8,5.01,0.00,22.3,21.6,00.0,31.3,24.0,06.4,0000.0,0000.42,0001.03,0000.33
2021-12-21 13:36:00,,0823.0,5.00,0.00,22.3,21.6,00.0,31.3,24.0,06.5,0000.0,0000.42,0001.08,0000.33
2021-12-21 13:37:00,,0823.0,5.01,0.00,22.3,21.6,00.0,31.3,23.9,06.5,0000.0,0000.43,0001.06,0000.33
2021-12-21 13:38:00,,0823.1,4.99,0.00,22.3,21.6,00.0,31.3,24.0,06.5,0000.0,0000.46,0001.10,0000.33
2021-12-21 13:39:00,,0823.1,5.01,0.00,22.3,21.6,00.0,31.3,24.0,06.5,0000.0,0000.46,0001.00,0000.34
2021-12-21 13:40:00,,0823.0,4.99,0.00,22.3,21.6,00.0,31.3,24.0,06.5,0000.0,0000.46,0000.96,0000.33
2021-12-21 13:41:00,,0822.9,5.00,0.00,22.3,21.6,00.0,31.3,23.9,06.5,0000.0,0000.46,0001.31,0000.33
2021-12-21 13:42:00,,0823.0,4.99,0.00,22.2,21.6,00.0,31.3,23.9,06.5,0000.0,0000.46,0001.43,0000.33
2021-12-21 13:43:00,,0823.0,5.02,0.00,22.2,21.5,00.0,31.3,23.9,06.5,0000.0,0000.47,0001.46,0000.34
2021-12-21 13:44:00,,0822.9,4.99,0.00,22.2,21.5,00.0,31.3,23.9,06.6,0000.0,0000.52,0001.87,0000.35
2021-12-21 13:45:00,,0822.9,5.01,0.00,22.2,21.4,00.0,31.3,23.8,06.6,0000.0,0000.59,0003.72,0000.37
2021-12-21 13:46:00,,0823.0,4.99,0.00,22.2,21.4,00.0,31.2,23.8,06.6,0000.0,0000.62,0004.08,0000.38
2021-12-21 13:47:00,,0823.0,5.00,0.00,22.1,21.3,00.0,31.2,23.8,06.6,0000.0,0000.66,0004.09,0000.39
2021-12-21 13:48:00,,0822.9,4.99,0.00,22.1,21.3,00.0,31.2,23.8,06.6,0000.0,0000.69,0004.14,0000.41
2021-12-21 13:49:00,,0822.9,5.02,0.00,22.1,21.3,00.0,31.2,23.7,06.6,0000.0,0000.67,0004.02,0000.41
2021-12-21 13:50:00,,0822.8,4.99,0.00,22.1,21.3,00.0,31.2,23.7,06.6,0000.0,0000.71,0004.11,0000.41
2021-12-21 13:51:00,,0823.0,5.01,0.00,22.0,21.3,00.0,31.2,23.6,06.6,0000.0,0000.71,0004.14,0000.41
2021-12-21 13:52:00,,0822.9,4.99,0.00,22.0,21.3,00.0,31.2,23.6,06.6,0000.0,0000.69,0003.63,0000.40
2021-12-21 13:53:00,,0822.8,5.01,0.00,22.0,21.2,00.0,31.1,23.6,06.6,0000.0,0000.69,0003.51,0000.40
2021-12-21 13:54:00,,0822.7,4.99,0.00,22.0,21.2,00.0,31.1,23.6,06.6,0000.0,0000.70,0003.51,0000.39
2021-12-21 13:55:00,,0823.1,5.01,0.00,21.9,21.1,00.0,31.1,23.6,06.6,0000.0,0000.68,0003.11,0000.38
2021-12-21 13:56:00,,0823.0,5.00,0.00,21.9,21.1,00.0,31.1,23.5,06.6,0000.0,0000.60,0001.24,0000.36
2021-12-21 13:57:00,,0823.1,5.00,0.00,21.9,21.1,00.0,31.1,23.6,06.6,0000.0,0000.59,0000.95,0000.34
2021-12-21 13:58:00,,0822.9,4.99,0.00,21.9,21.1,00.0,31.1,23.6,06.6,0000.0,0000.54,0000.89,0000.33
2021-12-21 13:59:00,,0822.8,5.01,0.00,21.9,21.3,00.0,31.1,23.6,06.6,0000.0,0000.51,0000.85,0000.31
